Year,Month,Day,Hour,Minute,Value (Times are PST for temperature in C)
2006,06,26,00,00,17.20
2006,06,26,00,01,17.10
2006,06,26,00,02,17.10
2006,06,26,00,03,17.10
2006,06,26,00,04,17.10
2006,06,26,00,05,17.00
2006,06,26,00,06,17.00
2006,06,26,00,07,17.00
2006,06,26,00,08,17.00
2006,06,26,00,09,17.00
2006,06,26,00,10,17.00
2006,06,26,00,11,17.00
2006,06,26,00,12,17.00
2006,06,26,00,13,17.00
2006,06,26,00,14,17.00
2006,06,26,00,15,17.00
2006,06,26,00,16,16.90
2006,06,26,00,17,16.90
2006,06,26,00,18,16.90
2006,06,26,00,19,16.90
2006,06,26,00,20,16.90
2006,06,26,00,21,16.90
2006,06,26,00,22,16.90
2006,06,26,00,23,16.90
2006,06,26,00,24,16.90
2006,06,26,00,25,16.80
2006,06,26,00,26,16.80
2006,06,26,00,27,16.80
2006,06,26,00,28,16.80
2006,06,26,00,29,16.80
2006,06,26,00,30,16.80
2006,06,26,00,31,16.70
2006,06,26,00,32,16.70
2006,06,26,00,33,16.70
2006,06,26,00,34,16.70
2006,06,26,00,35,16.70
2006,06,26,00,36,16.70
2006,06,26,00,37,16.70
2006,06,26,00,38,16.60
2006,06,26,00,39,16.60
2006,06,26,00,40,16.60
2006,06,26,00,41,16.60
2006,06,26,00,42,16.60
2006,06,26,00,43,16.60
2006,06,26,00,44,16.60
2006,06,26,00,45,16.50
2006,06,26,00,46,16.40
2006,06,26,00,47,16.40
2006,06,26,00,48,16.40
2006,06,26,00,49,16.40
2006,06,26,00,50,16.40
2006,06,26,00,51,16.40
2006,06,26,00,52,16.40
2006,06,26,00,53,16.40
2006,06,26,00,54,16.40
2006,06,26,00,55,16.40
2006,06,26,00,56,16.40
2006,06,26,00,57,16.40
2006,06,26,00,58,16.40
2006,06,26,00,59,16.40
2006,06,26,01,00,16.40
2006,06,26,01,01,16.40
2006,06,26,01,02,16.40
2006,06,26,01,03,16.40
2006,06,26,01,04,16.40
2006,06,26,01,05,16.40
2006,06,26,01,06,16.40
2006,06,26,01,07,16.40
2006,06,26,01,08,16.30
2006,06,26,01,09,16.30
2006,06,26,01,10,16.30
2006,06,26,01,11,16.30
2006,06,26,01,12,16.30
2006,06,26,01,13,16.30
2006,06,26,01,14,16.40
2006,06,26,01,15,16.40
2006,06,26,01,16,16.40
2006,06,26,01,17,16.60
2006,06,26,01,18,16.60
2006,06,26,01,19,16.70
2006,06,26,01,20,16.70
2006,06,26,01,21,16.70
2006,06,26,01,22,16.70
2006,06,26,01,23,16.70
2006,06,26,01,24,16.80
2006,06,26,01,25,16.80
2006,06,26,01,26,16.90
2006,06,26,01,27,16.90
2006,06,26,01,28,16.90
2006,06,26,01,29,17.00
2006,06,26,01,30,17.00
2006,06,26,01,31,17.00
2006,06,26,01,32,17.00
2006,06,26,01,33,17.00
2006,06,26,01,34,17.10
2006,06,26,01,35,17.10
2006,06,26,01,36,17.10
2006,06,26,01,37,17.10
2006,06,26,01,38,17.10
2006,06,26,01,39,17.20
2006,06,26,01,40,17.20
2006,06,26,01,41,17.20
2006,06,26,01,42,17.30
2006,06,26,01,43,17.30
2006,06,26,01,44,17.30
2006,06,26,01,45,17.30
2006,06,26,01,46,17.40
2006,06,26,01,47,17.40
2006,06,26,01,48,17.40
2006,06,26,01,49,17.40
2006,06,26,01,50,17.40
2006,06,26,01,51,17.40
2006,06,26,01,52,17.40
2006,06,26,01,53,17.40
2006,06,26,01,54,17.40
2006,06,26,01,55,17.40
2006,06,26,01,56,17.40
2006,06,26,01,57,17.30
2006,06,26,01,58,17.30
2006,06,26,01,59,17.30
2006,06,26,02,00,17.30
2006,06,26,02,01,17.30
2006,06,26,02,02,17.30
2006,06,26,02,03,17.30
2006,06,26,02,04,17.30
2006,06,26,02,05,17.30
2006,06,26,02,06,17.30
2006,06,26,02,07,17.30
2006,06,26,02,08,17.30
2006,06,26,02,09,17.30
2006,06,26,02,10,17.30
2006,06,26,02,11,17.30
2006,06,26,02,12,17.30
2006,06,26,02,13,17.30
2006,06,26,02,14,17.30
2006,06,26,02,15,17.30
2006,06,26,02,16,17.40
2006,06,26,02,17,17.40
2006,06,26,02,18,17.40
2006,06,26,02,19,17.40
2006,06,26,02,20,17.40
2006,06,26,02,21,17.40
2006,06,26,02,22,17.40
2006,06,26,02,23,17.40
2006,06,26,02,24,17.40
2006,06,26,02,25,17.40
2006,06,26,02,26,17.40
2006,06,26,02,27,17.40
2006,06,26,02,28,17.40
2006,06,26,02,29,17.40
2006,06,26,02,30,17.50
2006,06,26,02,31,17.50
2006,06,26,02,32,17.50
2006,06,26,02,33,17.50
2006,06,26,02,34,17.50
2006,06,26,02,35,17.50
2006,06,26,02,36,17.50
2006,06,26,02,37,17.40
2006,06,26,02,38,17.40
2006,06,26,02,39,17.30
2006,06,26,02,40,17.20
2006,06,26,02,41,17.00
2006,06,26,02,42,16.90
2006,06,26,02,43,16.80
2006,06,26,02,44,16.70
2006,06,26,02,45,16.70
2006,06,26,02,46,16.40
2006,06,26,02,47,16.20
2006,06,26,02,48,16.10
2006,06,26,02,49,16.00
2006,06,26,02,50,15.80
2006,06,26,02,51,15.80
2006,06,26,02,52,15.70
2006,06,26,02,53,15.70
2006,06,26,02,54,15.60
2006,06,26,02,55,15.60
2006,06,26,02,56,15.60
2006,06,26,02,57,15.60
2006,06,26,02,58,15.60
2006,06,26,02,59,15.60
2006,06,26,03,00,15.50
2006,06,26,03,01,15.50
2006,06,26,03,02,15.50
2006,06,26,03,03,15.50
2006,06,26,03,04,15.50
2006,06,26,03,05,15.50
2006,06,26,03,06,15.50
2006,06,26,03,07,15.50
2006,06,26,03,08,15.50
2006,06,26,03,09,15.40
2006,06,26,03,10,15.40
2006,06,26,03,11,15.40
2006,06,26,03,12,15.30
2006,06,26,03,13,15.30
2006,06,26,03,14,15.30
2006,06,26,03,15,15.30
2006,06,26,03,16,15.30
2006,06,26,03,17,15.40
2006,06,26,03,18,15.40
2006,06,26,03,19,15.50
2006,06,26,03,20,15.50
2006,06,26,03,21,15.50
2006,06,26,03,22,15.50
2006,06,26,03,23,15.50
2006,06,26,03,24,15.50
2006,06,26,03,25,15.60
2006,06,26,03,26,15.60
2006,06,26,03,27,15.60
2006,06,26,03,28,15.70
2006,06,26,03,29,15.70
2006,06,26,03,30,15.70
2006,06,26,03,31,15.70
2006,06,26,03,32,15.70
2006,06,26,03,33,15.70
2006,06,26,03,34,15.60
2006,06,26,03,35,15.60
2006,06,26,03,36,15.40
2006,06,26,03,37,15.30
2006,06,26,03,38,15.20
2006,06,26,03,39,15.00
2006,06,26,03,40,14.90
2006,06,26,03,41,14.70
2006,06,26,03,42,14.60
2006,06,26,03,43,14.50
2006,06,26,03,44,14.50
2006,06,26,03,45,14.40
2006,06,26,03,46,14.20
2006,06,26,03,47,14.20
2006,06,26,03,48,14.20
2006,06,26,03,49,14.10
2006,06,26,03,50,14.10
2006,06,26,03,51,14.00
2006,06,26,03,52,14.00
2006,06,26,03,53,14.00
2006,06,26,03,54,14.00
2006,06,26,03,55,14.00
2006,06,26,03,56,14.00
2006,06,26,03,57,14.00
2006,06,26,03,58,14.00
2006,06,26,03,59,14.00
2006,06,26,04,00,14.00
2006,06,26,04,01,14.00
2006,06,26,04,02,14.00
2006,06,26,04,03,14.00
2006,06,26,04,04,14.00
2006,06,26,04,05,14.00
2006,06,26,04,06,14.00
2006,06,26,04,07,14.00
2006,06,26,04,08,14.00
2006,06,26,04,09,14.00
2006,06,26,04,10,14.00
2006,06,26,04,11,14.00
2006,06,26,04,12,14.00
2006,06,26,04,13,14.00
2006,06,26,04,14,14.00
2006,06,26,04,15,14.00
2006,06,26,04,16,14.00
2006,06,26,04,17,14.00
2006,06,26,04,18,14.10
2006,06,26,04,19,14.10
2006,06,26,04,20,14.10
2006,06,26,04,21,14.10
2006,06,26,04,22,14.00
2006,06,26,04,23,14.00
2006,06,26,04,24,14.00
2006,06,26,04,25,14.00
2006,06,26,04,26,14.00
2006,06,26,04,27,13.90
2006,06,26,04,28,13.90
2006,06,26,04,29,13.90
2006,06,26,04,30,13.90
2006,06,26,04,31,13.90
2006,06,26,04,32,13.90
2006,06,26,04,33,13.90
2006,06,26,04,34,13.80
2006,06,26,04,35,13.80
2006,06,26,04,36,13.80
2006,06,26,04,37,13.80
2006,06,26,04,38,13.80
2006,06,26,04,39,13.80
2006,06,26,04,40,13.80
2006,06,26,04,41,13.80
2006,06,26,04,42,13.80
2006,06,26,04,43,13.80
2006,06,26,04,44,13.80
2006,06,26,04,45,13.70
2006,06,26,04,46,13.70
2006,06,26,04,47,13.70
2006,06,26,04,48,13.70
2006,06,26,04,49,13.70
2006,06,26,04,50,13.70
2006,06,26,04,51,13.70
2006,06,26,04,52,13.70
2006,06,26,04,53,13.70
2006,06,26,04,54,13.80
2006,06,26,04,55,13.80
2006,06,26,04,56,13.80
2006,06,26,04,57,13.90
2006,06,26,04,58,13.90
2006,06,26,04,59,13.90
2006,06,26,05,00,13.90
2006,06,26,05,01,14.00
2006,06,26,05,02,14.10
2006,06,26,05,03,14.10
2006,06,26,05,04,14.10
2006,06,26,05,05,14.20
2006,06,26,05,06,14.20
2006,06,26,05,07,14.30
2006,06,26,05,08,14.30
2006,06,26,05,09,14.30
2006,06,26,05,10,14.40
2006,06,26,05,11,14.40
2006,06,26,05,12,14.50
2006,06,26,05,13,14.50
2006,06,26,05,14,14.60
2006,06,26,05,15,14.60
2006,06,26,05,16,14.70
2006,06,26,05,17,14.70
2006,06,26,05,18,14.70
2006,06,26,05,19,14.80
2006,06,26,05,20,14.80
2006,06,26,05,21,14.80
2006,06,26,05,22,14.80
2006,06,26,05,23,14.80
2006,06,26,05,24,14.80
2006,06,26,05,25,14.80
2006,06,26,05,26,14.80
2006,06,26,05,27,14.80
2006,06,26,05,28,14.90
2006,06,26,05,29,14.90
2006,06,26,05,30,14.90
2006,06,26,05,31,14.90
2006,06,26,05,32,14.90
2006,06,26,05,33,14.90
2006,06,26,05,34,14.90
2006,06,26,05,35,14.90
2006,06,26,05,36,14.90
2006,06,26,05,37,14.90
2006,06,26,05,38,15.00
2006,06,26,05,39,15.00
2006,06,26,05,40,15.00
2006,06,26,05,41,15.00
2006,06,26,05,42,15.00
2006,06,26,05,43,15.00
2006,06,26,05,44,15.10
2006,06,26,05,45,15.10
2006,06,26,05,46,15.10
2006,06,26,05,47,15.10
2006,06,26,05,48,15.10
2006,06,26,05,49,15.20
2006,06,26,05,50,15.20
2006,06,26,05,51,15.30
2006,06,26,05,52,15.30
2006,06,26,05,53,15.30
2006,06,26,05,54,15.30
2006,06,26,05,55,15.30
2006,06,26,05,56,15.30
2006,06,26,05,57,15.40
2006,06,26,05,58,15.40
2006,06,26,05,59,15.40
2006,06,26,06,00,15.40
2006,06,26,06,01,15.50
2006,06,26,06,02,15.50
2006,06,26,06,03,15.50
2006,06,26,06,04,15.50
2006,06,26,06,05,15.60
2006,06,26,06,06,15.60
2006,06,26,06,07,15.60
2006,06,26,06,08,15.70
2006,06,26,06,09,15.70
2006,06,26,06,10,15.80
2006,06,26,06,11,15.80
2006,06,26,06,12,15.80
2006,06,26,06,13,15.80
2006,06,26,06,14,15.80
2006,06,26,06,15,15.80
2006,06,26,06,16,15.80
2006,06,26,06,17,15.80
2006,06,26,06,18,15.80
2006,06,26,06,19,15.80
2006,06,26,06,20,15.80
2006,06,26,06,21,15.80
2006,06,26,06,22,15.80
2006,06,26,06,23,15.80
2006,06,26,06,24,15.90
2006,06,26,06,25,15.90
2006,06,26,06,26,16.00
2006,06,26,06,27,16.20
2006,06,26,06,28,16.30
2006,06,26,06,29,16.30
2006,06,26,06,30,16.40
2006,06,26,06,31,16.40
2006,06,26,06,32,16.40
2006,06,26,06,33,16.40
2006,06,26,06,34,16.60
2006,06,26,06,35,16.70
2006,06,26,06,36,16.70
2006,06,26,06,37,16.70
2006,06,26,06,38,16.70
2006,06,26,06,39,16.80
2006,06,26,06,40,16.80
2006,06,26,06,41,16.90
2006,06,26,06,42,16.90
2006,06,26,06,43,16.90
2006,06,26,06,44,17.00
2006,06,26,06,45,17.00
2006,06,26,06,46,17.00
2006,06,26,06,47,17.10
2006,06,26,06,48,17.30
2006,06,26,06,49,17.40
2006,06,26,06,50,17.50
2006,06,26,06,51,17.50
2006,06,26,06,52,17.70
2006,06,26,06,53,17.70
2006,06,26,06,54,17.80
2006,06,26,06,55,17.90
2006,06,26,06,56,18.00
2006,06,26,06,57,18.10
2006,06,26,06,58,18.20
2006,06,26,06,59,18.20
2006,06,26,07,00,18.30
2006,06,26,07,01,18.40
2006,06,26,07,02,18.40
2006,06,26,07,03,18.50
2006,06,26,07,04,18.50
2006,06,26,07,05,18.50
2006,06,26,07,06,18.50
2006,06,26,07,07,18.50
2006,06,26,07,08,18.40
2006,06,26,07,09,18.40
2006,06,26,07,10,18.40
2006,06,26,07,11,18.40
2006,06,26,07,12,18.40
2006,06,26,07,13,18.40
2006,06,26,07,14,18.50
2006,06,26,07,15,18.50
2006,06,26,07,16,18.50
2006,06,26,07,17,18.60
2006,06,26,07,18,18.60
2006,06,26,07,19,18.60
2006,06,26,07,20,18.60
2006,06,26,07,21,18.60
2006,06,26,07,22,18.70
2006,06,26,07,23,18.70
2006,06,26,07,24,18.80
2006,06,26,07,25,18.90
2006,06,26,07,26,18.90
2006,06,26,07,27,19.00
2006,06,26,07,28,19.10
2006,06,26,07,29,19.20
2006,06,26,07,30,19.40
2006,06,26,07,31,19.50
2006,06,26,07,32,19.60
2006,06,26,07,33,19.70
2006,06,26,07,34,19.80
2006,06,26,07,35,19.90
2006,06,26,07,36,20.00
2006,06,26,07,37,20.20
2006,06,26,07,38,20.30
2006,06,26,07,39,20.40
2006,06,26,07,40,20.60
2006,06,26,07,41,20.70
2006,06,26,07,42,20.90
2006,06,26,07,43,21.00
2006,06,26,07,44,21.10
2006,06,26,07,45,21.10
2006,06,26,07,46,21.10
2006,06,26,07,47,21.10
2006,06,26,07,48,21.10
2006,06,26,07,49,21.10
2006,06,26,07,50,21.10
2006,06,26,07,51,21.10
2006,06,26,07,52,21.10
2006,06,26,07,53,21.10
2006,06,26,07,54,21.20
2006,06,26,07,55,21.30
2006,06,26,07,56,21.30
2006,06,26,07,57,21.30
2006,06,26,07,58,21.30
2006,06,26,07,59,21.30
2006,06,26,08,00,21.20
2006,06,26,08,01,21.00
2006,06,26,08,02,20.80
2006,06,26,08,03,20.70
2006,06,26,08,04,20.70
2006,06,26,08,05,20.50
2006,06,26,08,06,20.50
2006,06,26,08,07,20.10
2006,06,26,08,08,19.80
2006,06,26,08,09,19.60
2006,06,26,08,10,19.40
2006,06,26,08,11,19.10
2006,06,26,08,12,18.80
2006,06,26,08,13,18.60
2006,06,26,08,14,18.30
2006,06,26,08,15,18.00
2006,06,26,08,16,17.80
2006,06,26,08,17,17.70
2006,06,26,08,18,17.50
2006,06,26,08,19,17.40
2006,06,26,08,20,17.40
2006,06,26,08,21,17.40
2006,06,26,08,22,17.50
2006,06,26,08,23,17.50
2006,06,26,08,24,17.40
2006,06,26,08,25,17.40
2006,06,26,08,26,17.30
2006,06,26,08,27,17.20
2006,06,26,08,28,17.00
2006,06,26,08,29,16.90
2006,06,26,08,30,16.80
2006,06,26,08,31,16.90
2006,06,26,08,32,16.90
2006,06,26,08,33,16.90
2006,06,26,08,34,16.90
2006,06,26,08,35,16.90
2006,06,26,08,36,16.90
2006,06,26,08,37,16.90
2006,06,26,08,38,16.90
2006,06,26,08,39,16.90
2006,06,26,08,40,16.90
2006,06,26,08,41,16.90
2006,06,26,08,42,17.00
2006,06,26,08,43,16.90
2006,06,26,08,44,16.90
2006,06,26,08,45,16.90
2006,06,26,08,46,16.90
2006,06,26,08,47,17.00
2006,06,26,08,48,17.00
2006,06,26,08,49,17.10
2006,06,26,08,50,17.20
2006,06,26,08,51,17.30
2006,06,26,08,52,17.40
2006,06,26,08,53,17.60
2006,06,26,08,54,17.80
2006,06,26,08,55,17.90
2006,06,26,08,56,18.00
2006,06,26,08,57,18.20
2006,06,26,08,58,18.20
2006,06,26,08,59,18.20
2006,06,26,09,00,18.20
2006,06,26,09,01,18.30
2006,06,26,09,02,18.30
2006,06,26,09,03,18.30
2006,06,26,09,04,18.40
2006,06,26,09,05,18.50
2006,06,26,09,06,18.60
2006,06,26,09,07,18.70
2006,06,26,09,08,18.80
2006,06,26,09,09,18.80
2006,06,26,09,10,18.90
2006,06,26,09,11,19.00
2006,06,26,09,12,19.10
2006,06,26,09,13,19.00
2006,06,26,09,14,18.90
2006,06,26,09,15,18.80
2006,06,26,09,16,18.70
2006,06,26,09,17,18.70
2006,06,26,09,18,18.80
2006,06,26,09,19,18.80
2006,06,26,09,20,18.80
2006,06,26,09,21,18.80
2006,06,26,09,22,18.80
2006,06,26,09,23,18.90
2006,06,26,09,24,18.90
2006,06,26,09,25,18.90
2006,06,26,09,26,18.90
2006,06,26,09,27,19.00
2006,06,26,09,28,19.10
2006,06,26,09,29,19.10
2006,06,26,09,30,19.10
2006,06,26,09,31,19.10
2006,06,26,09,32,19.10
2006,06,26,09,33,19.10
2006,06,26,09,34,19.10
2006,06,26,09,35,19.30
2006,06,26,09,36,19.30
2006,06,26,09,37,19.50
2006,06,26,09,38,19.50
2006,06,26,09,39,19.60
2006,06,26,09,40,19.40
2006,06,26,09,41,19.30
2006,06,26,09,42,19.10
2006,06,26,09,43,19.10
2006,06,26,09,44,19.10
2006,06,26,09,45,19.10
2006,06,26,09,46,19.10
2006,06,26,09,47,19.10
2006,06,26,09,48,19.20
2006,06,26,09,49,19.30
2006,06,26,09,50,19.40
2006,06,26,09,51,19.30
2006,06,26,09,52,19.30
2006,06,26,09,53,19.30
2006,06,26,09,54,19.40
2006,06,26,09,55,19.40
2006,06,26,09,56,19.50
2006,06,26,09,57,19.60
2006,06,26,09,58,19.70
2006,06,26,09,59,19.80
2006,06,26,10,00,19.90
2006,06,26,10,01,19.90
2006,06,26,10,02,19.90
2006,06,26,10,03,20.10
2006,06,26,10,04,20.00
2006,06,26,10,05,19.90
2006,06,26,10,06,19.90
2006,06,26,10,07,19.90
2006,06,26,10,08,19.90
2006,06,26,10,09,20.10
2006,06,26,10,10,20.10
2006,06,26,10,11,20.20
2006,06,26,10,12,20.30
2006,06,26,10,13,20.40
2006,06,26,10,14,20.40
2006,06,26,10,15,20.50
2006,06,26,10,16,20.50
2006,06,26,10,17,20.50
2006,06,26,10,18,20.60
2006,06,26,10,19,20.70
2006,06,26,10,20,20.80
2006,06,26,10,21,20.90
2006,06,26,10,22,20.90
2006,06,26,10,23,21.10
2006,06,26,10,24,21.20
2006,06,26,10,25,21.20
2006,06,26,10,26,21.10
2006,06,26,10,27,21.00
2006,06,26,10,28,21.00
2006,06,26,10,29,20.90
2006,06,26,10,30,20.90
2006,06,26,10,31,20.90
2006,06,26,10,32,21.00
2006,06,26,10,33,21.10
2006,06,26,10,34,21.20
2006,06,26,10,35,21.30
2006,06,26,10,36,21.50
2006,06,26,10,37,21.60
2006,06,26,10,38,21.70
2006,06,26,10,39,21.70
2006,06,26,10,40,21.90
2006,06,26,10,41,22.00
2006,06,26,10,42,22.20
2006,06,26,10,43,22.40
2006,06,26,10,44,22.50
2006,06,26,10,45,22.70
2006,06,26,10,46,22.80
2006,06,26,10,47,22.80
2006,06,26,10,48,22.90
2006,06,26,10,49,22.90
2006,06,26,10,50,22.90
2006,06,26,10,51,22.90
2006,06,26,10,52,22.90
2006,06,26,10,53,22.90
2006,06,26,10,54,23.00
2006,06,26,10,55,23.30
2006,06,26,10,56,23.60
2006,06,26,10,57,23.90
2006,06,26,10,58,24.20
2006,06,26,10,59,24.40
2006,06,26,11,00,24.50
2006,06,26,11,01,24.70
2006,06,26,11,02,24.70
2006,06,26,11,03,24.80
2006,06,26,11,04,24.90
2006,06,26,11,05,25.00
2006,06,26,11,06,25.20
2006,06,26,11,07,25.30
2006,06,26,11,08,25.40
2006,06,26,11,09,25.40
2006,06,26,11,10,25.50
2006,06,26,11,11,25.50
2006,06,26,11,12,25.50
2006,06,26,11,13,25.60
2006,06,26,11,14,25.60
2006,06,26,11,15,25.40
2006,06,26,11,16,24.80
2006,06,26,11,17,24.30
2006,06,26,11,18,23.80
2006,06,26,11,19,23.50
2006,06,26,11,20,23.10
2006,06,26,11,21,22.70
2006,06,26,11,22,22.40
2006,06,26,11,23,22.10
2006,06,26,11,24,21.90
2006,06,26,11,25,21.70
2006,06,26,11,26,21.50
2006,06,26,11,27,21.30
2006,06,26,11,28,21.10
2006,06,26,11,29,20.90
2006,06,26,11,30,20.80
2006,06,26,11,31,20.90
2006,06,26,11,32,20.90
2006,06,26,11,33,20.70
2006,06,26,11,34,20.40
2006,06,26,11,35,20.10
2006,06,26,11,36,20.10
2006,06,26,11,37,19.90
2006,06,26,11,38,19.90
2006,06,26,11,39,19.80
2006,06,26,11,40,19.80
2006,06,26,11,41,19.80
2006,06,26,11,42,19.80
2006,06,26,11,43,20.00
2006,06,26,11,44,20.20
2006,06,26,11,45,20.50
2006,06,26,11,46,20.70
2006,06,26,11,47,20.90
2006,06,26,11,48,21.10
2006,06,26,11,49,21.30
2006,06,26,11,50,21.60
2006,06,26,11,51,21.80
2006,06,26,11,52,22.10
2006,06,26,11,53,22.30
2006,06,26,11,54,22.40
2006,06,26,11,55,22.50
2006,06,26,11,56,22.40
2006,06,26,11,57,22.40
2006,06,26,11,58,22.50
2006,06,26,11,59,22.60
2006,06,26,12,00,22.60
2006,06,26,12,01,22.60
2006,06,26,12,02,22.60
2006,06,26,12,03,22.60
2006,06,26,12,04,22.30
2006,06,26,12,05,22.10
2006,06,26,12,06,21.80
2006,06,26,12,07,21.50
2006,06,26,12,08,21.20
2006,06,26,12,09,20.80
2006,06,26,12,10,20.40
2006,06,26,12,11,20.10
2006,06,26,12,12,19.90
2006,06,26,12,13,19.80
2006,06,26,12,14,19.80
2006,06,26,12,15,19.90
2006,06,26,12,16,19.90
2006,06,26,12,17,19.90
2006,06,26,12,18,19.90
2006,06,26,12,19,19.90
2006,06,26,12,20,20.00
2006,06,26,12,21,20.20
2006,06,26,12,22,20.40
2006,06,26,12,23,20.40
2006,06,26,12,24,20.50
2006,06,26,12,25,20.60
2006,06,26,12,26,20.60
2006,06,26,12,27,20.50
2006,06,26,12,28,20.50
2006,06,26,12,29,20.40
2006,06,26,12,30,20.30
2006,06,26,12,31,20.20
2006,06,26,12,32,20.20
2006,06,26,12,33,20.20
2006,06,26,12,34,20.30
2006,06,26,12,35,20.30
2006,06,26,12,36,20.40
2006,06,26,12,37,20.50
2006,06,26,12,38,20.50
2006,06,26,12,39,20.70
2006,06,26,12,40,20.80
2006,06,26,12,41,20.80
2006,06,26,12,42,20.80
2006,06,26,12,43,20.80
2006,06,26,12,44,20.80
2006,06,26,12,45,20.90
2006,06,26,12,46,20.80
2006,06,26,12,47,20.70
2006,06,26,12,48,20.80
2006,06,26,12,49,21.00
2006,06,26,12,50,21.10
2006,06,26,12,51,21.20
2006,06,26,12,52,21.30
2006,06,26,12,53,21.50
2006,06,26,12,54,21.60
2006,06,26,12,55,21.70
2006,06,26,12,56,21.70
2006,06,26,12,57,21.70
2006,06,26,12,58,21.70
2006,06,26,12,59,21.80
2006,06,26,13,00,21.80
2006,06,26,13,01,21.80
2006,06,26,13,02,21.80
2006,06,26,13,03,21.80
2006,06,26,13,04,21.90
2006,06,26,13,05,22.00
2006,06,26,13,06,22.10
2006,06,26,13,07,22.10
2006,06,26,13,08,22.00
2006,06,26,13,09,21.90
2006,06,26,13,10,21.80
2006,06,26,13,11,21.70
2006,06,26,13,12,21.50
2006,06,26,13,13,21.30
2006,06,26,13,14,21.30
2006,06,26,13,15,21.30
2006,06,26,13,16,21.30
2006,06,26,13,17,21.10
2006,06,26,13,18,21.00
2006,06,26,13,19,21.00
2006,06,26,13,20,21.00
2006,06,26,13,21,21.00
2006,06,26,13,22,21.10
2006,06,26,13,23,21.30
2006,06,26,13,24,21.50
2006,06,26,13,25,21.60
2006,06,26,13,26,21.70
2006,06,26,13,27,21.70
2006,06,26,13,28,21.60
2006,06,26,13,29,21.70
2006,06,26,13,30,21.80
2006,06,26,13,31,21.80
2006,06,26,13,32,21.80
2006,06,26,13,33,21.90
2006,06,26,13,34,21.90
2006,06,26,13,35,21.90
2006,06,26,13,36,21.90
2006,06,26,13,37,22.00
2006,06,26,13,38,22.20
2006,06,26,13,39,22.20
2006,06,26,13,40,22.30
2006,06,26,13,41,22.40
2006,06,26,13,42,22.60
2006,06,26,13,43,22.60
2006,06,26,13,44,22.40
2006,06,26,13,45,22.40
2006,06,26,13,46,22.40
2006,06,26,13,47,22.30
2006,06,26,13,48,22.00
2006,06,26,13,49,21.80
2006,06,26,13,50,21.60
2006,06,26,13,51,21.50
2006,06,26,13,52,21.30
2006,06,26,13,53,21.30
2006,06,26,13,54,21.20
2006,06,26,13,55,21.20
2006,06,26,13,56,21.20
2006,06,26,13,57,21.30
2006,06,26,13,58,21.40
2006,06,26,13,59,21.30
2006,06,26,14,00,21.20
2006,06,26,14,01,21.10
2006,06,26,14,02,20.90
2006,06,26,14,03,20.80
2006,06,26,14,04,20.70
2006,06,26,14,05,20.60
2006,06,26,14,06,20.60
2006,06,26,14,07,20.60
2006,06,26,14,08,20.70
2006,06,26,14,09,20.80
2006,06,26,14,10,20.90
2006,06,26,14,11,21.00
2006,06,26,14,12,20.90
2006,06,26,14,13,21.00
2006,06,26,14,14,21.00
2006,06,26,14,15,21.00
2006,06,26,14,16,21.00
2006,06,26,14,17,20.90
2006,06,26,14,18,20.90
2006,06,26,14,19,21.00
2006,06,26,14,20,21.10
2006,06,26,14,21,21.30
2006,06,26,14,22,21.50
2006,06,26,14,23,21.80
2006,06,26,14,24,21.90
2006,06,26,14,25,22.00
2006,06,26,14,26,22.20
2006,06,26,14,27,22.30
2006,06,26,14,28,22.30
2006,06,26,14,29,22.30
2006,06,26,14,30,22.30
2006,06,26,14,31,22.30
2006,06,26,14,32,22.30
2006,06,26,14,33,22.30
2006,06,26,14,34,22.50
2006,06,26,14,35,22.60
2006,06,26,14,36,22.70
2006,06,26,14,37,22.80
2006,06,26,14,38,22.80
2006,06,26,14,39,22.80
2006,06,26,14,40,22.60
2006,06,26,14,41,22.60
2006,06,26,14,42,22.60
2006,06,26,14,43,22.60
2006,06,26,14,44,22.30
2006,06,26,14,45,22.10
2006,06,26,14,46,21.90
2006,06,26,14,47,21.50
2006,06,26,14,48,21.20
2006,06,26,14,49,21.10
2006,06,26,14,50,21.00
2006,06,26,14,51,20.90
2006,06,26,14,52,20.90
2006,06,26,14,53,20.80
2006,06,26,14,54,20.70
2006,06,26,14,55,20.60
2006,06,26,14,56,20.60
2006,06,26,14,57,20.60
2006,06,26,14,58,20.40
2006,06,26,14,59,20.30
2006,06,26,15,00,20.20
2006,06,26,15,01,20.20
2006,06,26,15,02,20.20
2006,06,26,15,03,20.20
2006,06,26,15,04,20.20
2006,06,26,15,05,20.30
2006,06,26,15,06,20.50
2006,06,26,15,07,20.60
2006,06,26,15,08,20.80
2006,06,26,15,09,21.00
2006,06,26,15,10,21.20
2006,06,26,15,11,21.40
2006,06,26,15,12,21.50
2006,06,26,15,13,21.60
2006,06,26,15,14,21.70
2006,06,26,15,15,21.80
2006,06,26,15,16,21.80
2006,06,26,15,17,21.70
2006,06,26,15,18,21.60
2006,06,26,15,19,21.60
2006,06,26,15,20,21.60
2006,06,26,15,21,21.60
2006,06,26,15,22,21.60
2006,06,26,15,23,21.60
2006,06,26,15,24,21.60
2006,06,26,15,25,21.50
2006,06,26,15,26,21.40
2006,06,26,15,27,21.50
2006,06,26,15,28,21.60
2006,06,26,15,29,21.70
2006,06,26,15,30,21.90
2006,06,26,15,31,22.00
2006,06,26,15,32,22.20
2006,06,26,15,33,22.20
2006,06,26,15,34,22.00
2006,06,26,15,35,21.90
2006,06,26,15,36,21.90
2006,06,26,15,37,22.00
2006,06,26,15,38,22.10
2006,06,26,15,39,22.10
2006,06,26,15,40,22.10
2006,06,26,15,41,22.00
2006,06,26,15,42,22.00
2006,06,26,15,43,22.10
2006,06,26,15,44,22.10
2006,06,26,15,45,22.20
2006,06,26,15,46,22.30
2006,06,26,15,47,22.50
2006,06,26,15,48,22.70
2006,06,26,15,49,22.80
2006,06,26,15,50,22.90
2006,06,26,15,51,23.00
2006,06,26,15,52,23.20
2006,06,26,15,53,23.30
2006,06,26,15,54,23.40
2006,06,26,15,55,23.50
2006,06,26,15,56,23.60
2006,06,26,15,57,23.80
2006,06,26,15,58,23.90
2006,06,26,15,59,23.90
2006,06,26,16,00,24.10
2006,06,26,16,01,24.00
2006,06,26,16,02,23.90
2006,06,26,16,03,23.80
2006,06,26,16,04,23.70
2006,06,26,16,05,23.70
2006,06,26,16,06,23.70
2006,06,26,16,07,23.80
2006,06,26,16,08,24.00
2006,06,26,16,09,24.10
2006,06,26,16,10,24.20
2006,06,26,16,11,24.20
2006,06,26,16,12,24.20
2006,06,26,16,13,24.30
2006,06,26,16,14,24.50
2006,06,26,16,15,24.60
2006,06,26,16,16,24.60
2006,06,26,16,17,24.70
2006,06,26,16,18,24.70
2006,06,26,16,19,24.80
2006,06,26,16,20,24.80
2006,06,26,16,21,24.80
2006,06,26,16,22,24.90
2006,06,26,16,23,24.90
2006,06,26,16,24,24.90
2006,06,26,16,25,25.20
2006,06,26,16,26,25.30
2006,06,26,16,27,25.40
2006,06,26,16,28,25.50
2006,06,26,16,29,25.50
2006,06,26,16,30,25.50
2006,06,26,16,31,25.50
2006,06,26,16,32,25.50
2006,06,26,16,33,25.50
2006,06,26,16,34,25.60
2006,06,26,16,35,25.70
2006,06,26,16,36,25.70
2006,06,26,16,37,25.70
2006,06,26,16,38,25.70
2006,06,26,16,39,25.70
2006,06,26,16,40,25.70
2006,06,26,16,41,25.80
2006,06,26,16,42,25.80
2006,06,26,16,43,25.80
2006,06,26,16,44,25.90
2006,06,26,16,45,25.80
2006,06,26,16,46,25.80
2006,06,26,16,47,25.70
2006,06,26,16,48,25.70
2006,06,26,16,49,25.70
2006,06,26,16,50,25.70
2006,06,26,16,51,25.50
2006,06,26,16,52,25.40
2006,06,26,16,53,25.40
2006,06,26,16,54,25.40
2006,06,26,16,55,25.40
2006,06,26,16,56,25.50
2006,06,26,16,57,25.40
2006,06,26,16,58,25.40
2006,06,26,16,59,25.40
2006,06,26,17,00,25.40
2006,06,26,17,01,25.40
2006,06,26,17,02,25.30
2006,06,26,17,03,25.20
2006,06,26,17,04,25.10
2006,06,26,17,05,25.10
2006,06,26,17,06,25.10
2006,06,26,17,07,25.20
2006,06,26,17,08,25.10
2006,06,26,17,09,25.00
2006,06,26,17,10,24.90
2006,06,26,17,11,24.80
2006,06,26,17,12,24.70
2006,06,26,17,13,24.60
2006,06,26,17,14,24.40
2006,06,26,17,15,24.40
2006,06,26,17,16,24.30
2006,06,26,17,17,24.30
2006,06,26,17,18,24.30
2006,06,26,17,19,24.30